145  
ASUS41 KALY 231810  
RWRALY  
 
NEW YORK STATE HOURLY WEATHER ROUNDUP  
NATIONAL WEATHER SERVICE ALBANY NY  
100 PM EST SAT JAN 23 2021  
 
NOTE: "FAIR" INDICATES FEW OR NO CLOUDS BELOW 12,000 FEET WITH NO  
SIGNIFICANT WEATHER AND/OR NO S TO VISIBILITY
.  
 
NYZ032-033-038>043-046>054-057>066-NYZ062>081-082-084-231900-  
EAST  
 
 
CITY SKY/WX TMP DP RH WIND PRES REMARKS
 
ALBANY MOSUNNY 19 5 54 W24G37 30.06R WCI 2  
GLENS FALLS SUNNY 20 2 45 N14 30.01F WCI 7  
POUGHKEEPSIE PTSUNNY 30 6 36 W17G24 30.01F WCI 18  
NEWBURGH MOSUNNY 28 10 47 NW20G25 30.01F WCI 15  
MONTGOMERY MOSUNNY 28 7 41 NW17 30.02F WCI 16  
WHITE PLAINS MOSUNNY 29 8 41 W20G30 29.99S WCI 16  
ISLIP MOSUNNY 32 9 38 NW24G31 29.97F WCI 19  
NEW YORK CITY PTSUNNY 32 11 41 NW23G32 30.04S WCI 19  
CENTRAL PARK PTSUNNY 31 8 38 NW9G24 30.06S WCI 23  

 
 
NYZ005>009-017-018-044>046-055-056-231900-  
CENTRAL  
 
 
CITY SKY/WX TMP DP RH WIND PRES REMARKS
 
FULTON LGT SNOW 17 9 70 NW18 30.18S WCI 1  
SYRACUSE LGT SNOW 18 10 71 W14 30.17F BLWGSNOWWCI 4  
ROME SUNNY 15 5 64 W17 30.15R WCI -1  
ELMIRA CLOUDY 24 9 52 NW14G20 30.15F WCI 12  
BINGHAMTON LGT SNOW 18 11 74 NW14G22 30.04S WCI 4  
MONTICELLO MOSUNNY 23 7 50 NW16G28 29.98F WCI 10  

 
 
NYZ026>034-041>043-087-231900-  
NORTH  
 
 
CITY SKY/WX TMP DP RH WIND PRES REMARKS
 
WATERTOWN SUNNY 12 1 61 NW7 30.19F WCI 1  
FORT DRUM NOT AVBL  
OGDENSBURG FAIR 10 -2 56 W12 30.15S WCI -4  
MASSENA SUNNY 7 -4 60 W16 30.16S WCI -11  
SARANAC LAKE CLOUDY 4 -2 76 MISG 29.94S HAZE  
PLATTSBURGH SUNNY 14 0 53 W13G21 30.03F WCI 0  

 
 
NYZ001>004-010>016-019>021-085-231900-  
WEST  
 
 
CITY SKY/WX TMP DP RH WIND PRES REMARKS
 
NIAGARA FALLS CLOUDY 22 10 60 NW16 30.24F WCI 8  
BUFFALO PTSUNNY 22 8 55 NW14 30.24S WCI 9  
DUNKIRK FLURRIES 24 15 68 W16G22 30.27F WCI 11  
JAMESTOWN LGT SNOW 19 12 74 NW23G30 30.18F WCI 2  
WELLSVILLE MIX PCPN 17 9 70 MISG 30.11S  
ROCHESTER FLURRIES 20 10 65 NW16G23 30.22R WCI 6  
PENN YAN CLOUDY 21 8 57 W12G25 30.16S WCI 9  

 
 
KEY  
WCI = WIND CHILL INDEX  
VSB = VISIBILITY  
HX = HEAT INDEX  

 
 
 
CLICK HERE TO GO TO PREVIOUS BULLETINS.

The Nexlab NY Page
The Nexlab VT Page
The Nexlab MA Page
The Nexlab CT Page Main Text Page